Notices

What's New in latest Release from April 7th, 2021:

- Updated Glossary, including Speed of Maximum Gust, and Total Hourly Precipitation

- Updated national and regional climate services offices contacts and prices information

- Addition of station inventory lists for 1981-2010, 1971-2000, and 1961-1990 Normals.

If you haven't already, please take our survey and provide feedback about our website: https://eccc.sondage-survey.ca/f/LanguageSelection.aspx?s=442ca660-fcf1-47c0-95a9-59707d6fd709

Hourly Data Report for December 07, 2019

SAINT JOHN A
NEW BRUNSWICK
Current Station Operator: NAVCAN

45°18'58.000" N
65°53'24.000" W
108.80 m
8104901
71609
YSJ

Download Data

Hourly Data (December 2019)
Hourly Data Report for December 7, 2019
TIME
LST
Temp Definition
°C
Dew Point Definition
°C
Rel Hum Definition
%
Precip. Amount Definition
mm

Wind Dir Definition
10's deg

Wind Spd Definition
km/h
Visibility Definition
km
Stn Press Definition
kPa
Hmdx Definition


Wind Chill Definition


Weather Definition


00:00 -5.1 -8.7 76   33 13 24.1 100.13   -10 LegendNANA
01:00 -5.2 -8.9 75   34 14 24.1 100.13   -11 LegendNANA
02:00 -5.4 -8.9 76   36 10 24.1 100.14   -10 Cloudy
03:00 -6.1 -9.4 78   33 12 24.1 100.17   -11 LegendNANA
04:00 -7.5 -9.9 83   33 13 24.1 100.20   -13 LegendNANA
05:00 -7.6 -10.4 81   32 14 24.1 100.25   -14 Cloudy
06:00 -8.1 -11.0 80   32 13 24.1 100.27   -14 LegendNANA
07:00 -9.1 -11.4 83   32 18 24.1 100.36   -16 LegendNANA
08:00 -9.1 -11.4 84   32 16 24.1 100.47   -16 Mainly Clear
09:00 -8.1 -11.5 76   31 17 24.1 100.57   -15 LegendNANA
10:00 -7.1 -11.8 69   32 21 24.1 100.67   -14 LegendNANA
11:00 -6.4 -13.0 60   32 30 24.1 100.69   -15 Mainly Clear
12:00 -5.8 -13.4 55   32 27 24.1 100.69   -14 LegendNANA
13:00 -5.0 -13.5 52   30 22 24.1 100.70   -12 LegendNANA
14:00 -4.8 -13.6 51   30 25 24.1 100.70   -12 Mainly Clear
15:00 -5.1 -13.5 52   30 21 24.1 100.78   -12 LegendNANA
16:00 -5.8 -13.8 54   30 18 24.1 100.88   -12 LegendNANA
17:00 -7.2 -14.2 58   30 11 24.1 100.97   -12 Mainly Clear
18:00 -7.8 -13.5 64   28 8 24.1 101.04   -12 LegendNANA
19:00 -9.8 -13.8 73   30 7 24.1 101.09   -14 LegendNANA
20:00 -9.3 -13.4 72   28 9 24.1 101.14   -14 Clear
21:00 -9.8 -13.4 75   30 8 24.1 101.18   -14 LegendNANA
22:00 -13.3 -15.1 87   25 3 24.1 101.23   -15 LegendNANA
23:00 -10.4 -12.9 82   28 13 24.1 101.25   -17 Clear

Notes on Data Quality.

Legend

  • E = Estimated
  • M = Missing
  • NA = Not Available*
  • [empty] = Indicates an unobserved value
Date modified: